Hourly Weather Bolshie Kabany

Today, 1 August, Sunday

Time Temperature Precipitation Wind Pressure Humidity
00:00 +20°C° 0 mm 4 mps 747 mmHg 69%
01:00 +20°C° 0 mm 4 mps 747 mmHg 70%
02:00 +19°C° 0 mm 4 mps 748 mmHg 72%
03:00 +19°C° 0 mm 3 mps 748 mmHg 75%
04:00 +19°C° 0 mm 3 mps 748 mmHg 72%
05:00 +20°C° 0 mm 3 mps 748 mmHg 69%
06:00 +21°C° 0 mm 3 mps 749 mmHg 66%
07:00 +22°C° 0 mm 3 mps 749 mmHg 60%
08:00 +25°C° 0 mm 3 mps 749 mmHg 53%
09:00 +26°C° 0 mm 4 mps 750 mmHg 49%
10:00 +27°C° 0 mm 4 mps 750 mmHg 46%
11:00 +28°C° 0 mm 5 mps 750 mmHg 42%
12:00 +29°C° 0 mm 5 mps 750 mmHg 39%
13:00 +29°C° 0 mm 5 mps 750 mmHg 39%
14:00 +29°C° 0 mm 5 mps 750 mmHg 39%
15:00 +29°C° 0 mm 5 mps 750 mmHg 39%
16:00 +28°C° 0 mm 4 mps 751 mmHg 44%
17:00 +27°C° 0 mm 4 mps 751 mmHg 48%
18:00 +26°C° 0 mm 3 mps 751 mmHg 53%
19:00 +25°C° 0 mm 2 mps 751 mmHg 57%
20:00 +23°C° 0 mm 2 mps 751 mmHg 60%
21:00 +22°C° 0 mm 1 mps 751 mmHg 64%
22:00 +21°C° 0 mm 1 mps 751 mmHg 65%
23:00 +21°C° 0 mm 1 mps 751 mmHg 65%

Tomorrow, 2 August, Monday

Time Temperature Precipitation Wind Pressure Humidity
00:00 +20°C° 0 mm 1 mps 751 mmHg 66%
01:00 +20°C° 0 mm 1 mps 751 mmHg 67%
02:00 +20°C° 0 mm 1 mps 752 mmHg 68%
03:00 +19°C° 0 mm 2 mps 752 mmHg 69%
04:00 +19°C° 0 mm 2 mps 752 mmHg 67%
05:00 +20°C° 0 mm 2 mps 752 mmHg 66%
06:00 +22°C° 0 mm 1 mps 752 mmHg 64%
07:00 +24°C° 0 mm 2 mps 752 mmHg 59%
08:00 +26°C° 0 mm 2 mps 752 mmHg 54%
09:00 +28°C° 0 mm 3 mps 752 mmHg 49%
10:00 +29°C° 0 mm 3 mps 752 mmHg 46%
11:00 +30°C° 0 mm 3 mps 752 mmHg 42%
12:00 +31°C° 0 mm 3 mps 752 mmHg 38%
13:00 +33°C° 0 mm 3 mps 751 mmHg 37%
14:00 +33°C° 0 mm 3 mps 751 mmHg 36%
15:00 +33°C° 0 mm 3 mps 751 mmHg 36%
16:00 +31°C° 0 mm 3 mps 751 mmHg 40%
17:00 +30°C° 0 mm 3 mps 751 mmHg 45%
18:00 +29°C° 0 mm 3 mps 750 mmHg 49%
19:00 +28°C° 0 mm 3 mps 750 mmHg 51%
20:00 +27°C° 0 mm 3 mps 750 mmHg 53%
21:00 +25°C° 0 mm 3 mps 750 mmHg 55%
22:00 +25°C° 0 mm 2 mps 750 mmHg 55%
23:00 +24°C° 0 mm 2 mps 750 mmHg 55%

Day after tomorrow, 3 August, Tuesday

Time Temperature Precipitation Wind Pressure Humidity
00:00 +24°C° 0 mm 2 mps 750 mmHg 55%
01:00 +22°C° 0 mm 3 mps 750 mmHg 56%
02:00 +22°C° 0 mm 3 mps 750 mmHg 57%
03:00 +21°C° 0 mm 3 mps 750 mmHg 58%
04:00 +22°C° 0 mm 3 mps 750 mmHg 59%
05:00 +24°C° 0 mm 3 mps 750 mmHg 59%
06:00 +24°C° 0 mm 2 mps 750 mmHg 60%
07:00 +26°C° 0 mm 3 mps 749 mmHg 54%
08:00 +29°C° 0 mm 4 mps 749 mmHg 47%
09:00 +32°C° 0 mm 5 mps 749 mmHg 41%
10:00 +34°C° 0 mm 5 mps 749 mmHg 37%
11:00 +35°C° 0 mm 5 mps 748 mmHg 32%
12:00 +37°C° 0 mm 5 mps 748 mmHg 27%
13:00 +37°C° 0 mm 5 mps 748 mmHg 26%
14:00 +39°C° 0 mm 5 mps 747 mmHg 25%
15:00 +38°C° 0 mm 4 mps 747 mmHg 23%
16:00 +36°C° 0 mm 5 mps 747 mmHg 30%
17:00 +35°C° 0 mm 5 mps 747 mmHg 37%
18:00 +33°C° 0 mm 5 mps 748 mmHg 44%
19:00 +30°C° 0 mm 4 mps 748 mmHg 49%
20:00 +28°C° 0 mm 3 mps 748 mmHg 53%
21:00 +26°C° 0 mm 2 mps 748 mmHg 58%
22:00 +25°C° 0 mm 2 mps 749 mmHg 60%
23:00 +25°C° 0 mm 3 mps 749 mmHg 62%

4 August, Wednesday

Time Temperature Precipitation Wind Pressure Humidity
00:00 +24°C° 0 mm 3 mps 749 mmHg 63%
01:00 +22°C° 0 mm 3 mps 749 mmHg 67%
02:00 +22°C° 0 mm 3 mps 749 mmHg 71%
03:00 +21°C° 0 mm 4 mps 749 mmHg 75%
04:00 +21°C° 0.1 mm 3 mps 749 mmHg 77%
05:00 +21°C° 0.1 mm 2 mps 749 mmHg 79%
06:00 +21°C° 0.1 mm 2 mps 749 mmHg 80%
07:00 +23°C° 0 mm 2 mps 749 mmHg 74%
08:00 +25°C° 0 mm 2 mps 749 mmHg 67%
09:00 +26°C° 0 mm 2 mps 749 mmHg 61%
10:00 +27°C° 0 mm 3 mps 749 mmHg 58%
11:00 +27°C° 0 mm 3 mps 749 mmHg 55%
12:00 +28°C° 0 mm 4 mps 749 mmHg 52%
13:00 +28°C° 0.3 mm 4 mps 749 mmHg 54%
14:00 +28°C° 0.3 mm 4 mps 749 mmHg 56%
15:00 +27°C° 0.3 mm 4 mps 749 mmHg 58%
16:00 +27°C° 0 mm 4 mps 749 mmHg 58%
17:00 +26°C° 0 mm 4 mps 750 mmHg 58%
18:00 +26°C° 0 mm 4 mps 750 mmHg 58%
19:00 +24°C° 0 mm 3 mps 750 mmHg 64%
20:00 +22°C° 0 mm 3 mps 750 mmHg 70%
21:00 +20°C° 0 mm 2 mps 750 mmHg 76%
22:00 +19°C° 0 mm 2 mps 751 mmHg 78%
23:00 +19°C° 0 mm 2 mps 751 mmHg 80%

5 August, Thursday

Time Temperature Precipitation Wind Pressure Humidity
00:00 +18°C° 0 mm 3 mps 751 mmHg 82%
01:00 +18°C° 0 mm 3 mps 751 mmHg 83%
02:00 +17°C° 0 mm 3 mps 752 mmHg 85%
03:00 +17°C° 0 mm 3 mps 752 mmHg 87%
04:00 +17°C° 0 mm 3 mps 752 mmHg 81%
05:00 +18°C° 0 mm 3 mps 752 mmHg 76%
06:00 +19°C° 0 mm 3 mps 752 mmHg 70%
07:00 +20°C° 0 mm 3 mps 753 mmHg 62%
08:00 +21°C° 0 mm 4 mps 753 mmHg 53%
09:00 +23°C° 0 mm 4 mps 753 mmHg 45%
10:00 +25°C° 0 mm 4 mps 753 mmHg 41%
11:00 +26°C° 0 mm 5 mps 753 mmHg 38%
12:00 +27°C° 0 mm 5 mps 753 mmHg 34%
13:00 +27°C° 0 mm 5 mps 753 mmHg 34%
14:00 +27°C° 0 mm 5 mps 753 mmHg 33%
15:00 +27°C° 0 mm 6 mps 753 mmHg 33%
16:00 +26°C° 0 mm 5 mps 753 mmHg 36%
17:00 +25°C° 0 mm 4 mps 753 mmHg 39%
18:00 +23°C° 0 mm 4 mps 754 mmHg 43%
19:00 +21°C° 0 mm 3 mps 754 mmHg 47%
20:00 +19°C° 0 mm 2 mps 754 mmHg 52%
21:00 +17°C° 0 mm 2 mps 754 mmHg 56%
22:00 +17°C° 0 mm 2 mps 754 mmHg 57%
23:00 +16°C° 0 mm 2 mps 754 mmHg 59%

6 August, Friday

Time Temperature Precipitation Wind Pressure Humidity
00:00 +16°C° 0 mm 2 mps 754 mmHg 60%
01:00 +15°C° 0 mm 2 mps 754 mmHg 62%
02:00 +15°C° 0 mm 2 mps 754 mmHg 65%
03:00 +14°C° 0 mm 2 mps 755 mmHg 67%
04:00 +15°C° 0 mm 2 mps 755 mmHg 66%
05:00 +16°C° 0 mm 1 mps 755 mmHg 66%
06:00 +16°C° 0 mm 1 mps 755 mmHg 65%
07:00 +18°C° 0 mm 2 mps 755 mmHg 59%
08:00 +19°C° 0 mm 2 mps 755 mmHg 54%
09:00 +21°C° 0 mm 3 mps 756 mmHg 48%
10:00 +21°C° 0 mm 3 mps 756 mmHg 46%
11:00 +21°C° 0 mm 4 mps 756 mmHg 45%
12:00 +22°C° 0 mm 4 mps 756 mmHg 44%
13:00 +22°C° 0 mm 4 mps 755 mmHg 42%
14:00 +22°C° 0 mm 3 mps 755 mmHg 40%
15:00 +24°C° 0 mm 3 mps 755 mmHg 39%
16:00 +22°C° 0 mm 3 mps 755 mmHg 41%
17:00 +22°C° 0 mm 3 mps 755 mmHg 43%
18:00 +22°C° 0 mm 3 mps 755 mmHg 45%
19:00 +20°C° 0 mm 2 mps 755 mmHg 49%
20:00 +18°C° 0 mm 2 mps 756 mmHg 52%
21:00 +16°C° 0 mm 2 mps 756 mmHg 56%
22:00 +15°C° 0 mm 2 mps 756 mmHg 59%
23:00 +15°C° 0 mm 2 mps 756 mmHg 61%
Show more

We Need Your Consent

Meteoprog and our Service Providers may store and access personal data such as cookies, device identifiers or other similar technologies on your device and process such data to personalise content and ads, as well as provide social media features and to analyse the traffic.

  • Store and/or access information on your device

    Cookies, device identifiers or other information can be stored or accessed on your device for the purposes indicated above.

  • Personalised ads and content, ad and content measurement, audience insights, and products development

    Ads and content can be personalised based on a profile. More data can be added to better personalise ads and content. Ad and content performance can be measured. Insights about the audience who saw the ads and content can be derived. Such data can be used to develop or improve user’s experience, systems and software.

By clicking ‘I Agree’ you will allow the use of indicated cookies, device identifiers, web beacons or other similar technologies. Your settings can be changed in the browser on your device.

For certain purposes, legitimate interests may be relied on, rather than consent. You can read more about this in our Privacy and Cookie Policy.